Location: Oshawa
(43.9000°N, 78.8670°W)
Time: 00:33:38
(UTC-04:00)

Courier 1B - All Passes

Search period start: 27 May 2016 00:00
Search period end: 06 June 2016 00:00
Orbit: 963 x 1209 km, 28.3° (Epoch: 26 May)

Date Brightness Start Highest point End Pass type
(mag) Time Alt. Az. Time Alt. Az. Time Alt. Az.
27 May - 16:10:40 10° SSW 16:14:03 15° SSE 16:17:27 10° SE daylight
27 May - 18:02:16 10° SW 18:06:55 20° S 18:11:43 10° SE daylight
27 May - 19:55:47 10° SW 19:59:54 17° SSW 20:04:09 10° SSE daylight
28 May - 15:18:20 10° S 15:20:38 12° SSE 15:22:57 10° SE daylight
28 May - 17:09:00 10° SW 17:13:28 20° S 17:18:01 10° SE daylight
28 May - 19:02:05 10° SW 19:06:25 18° S 19:10:53 10° SSE daylight
29 May - 16:15:50 10° SSW 16:20:01 18° S 16:24:15 10° SE daylight
29 May - 18:08:28 10° SW 18:12:57 19° S 18:17:31 10° SE daylight
29 May - 20:03:19 10° SW 20:05:51 12° SSW 20:08:25 10° S daylight
30 May - 15:22:48 10° SSW 15:26:35 16° SSE 15:30:22 10° SE daylight
30 May - 17:14:59 10° SW 17:19:29 20° S 17:24:03 10° SE daylight
30 May - 19:09:03 10° SW 19:12:24 14° SSW 19:15:49 10° SSE daylight
31 May - 14:30:00 10° SSW 14:33:10 14° SSE 14:36:19 10° SE daylight
31 May - 16:21:34 10° SW 16:26:02 20° S 16:30:32 10° SE daylight
31 May - 18:15:07 10° SW 18:18:57 16° SSW 18:22:52 10° SSE daylight
01 Jun - 13:37:37 10° S 13:39:45 12° SSE 13:41:52 10° SE daylight
01 Jun - 15:28:14 10° SW 15:32:36 19° S 15:36:56 10° SE daylight
01 Jun - 17:21:21 10° SW 17:25:30 18° S 17:29:42 10° SSE daylight
02 Jun - 14:34:59 10° SSW 14:39:09 18° S 14:43:16 10° SE daylight
02 Jun - 16:27:42 10° SW 16:32:04 19° S 16:36:27 10° SE daylight
02 Jun - 18:22:39 10° SW 18:24:55 12° SSW 18:27:12 10° S daylight
03 Jun - 13:41:52 10° SSW 13:45:43 16° SSE 13:49:30 10° SE daylight
03 Jun - 15:34:08 10° SW 15:38:37 20° S 15:43:05 10° SE daylight
03 Jun - 17:28:16 10° SW 17:31:30 14° SSW 17:34:45 10° SSE daylight
04 Jun - 12:48:57 10° SSW 12:52:16 14° SSE 12:55:31 10° SE daylight
04 Jun - 14:40:37 10° SW 14:45:10 20° S 14:49:40 10° SE daylight
04 Jun - 16:34:15 10° SW 16:38:05 16° SSW 16:41:54 10° SSE daylight
05 Jun - 11:56:26 10° S 11:58:49 12° SSE 12:01:11 10° SE daylight
05 Jun - 13:47:11 10° SW 13:51:43 19° S 13:56:09 10° SE daylight
05 Jun - 15:40:24 10° SW 15:44:39 18° S 15:48:51 10° SSE daylight
